Lapse_Rate
5.9 5.8 5.9 5.9 5.7 5.9 6.4 5.7 5.5 5.1 4.9 4.8 4.3 5.4 5.9 6.1 6.3 6.1 6.3 6.2 6.3 6.7 6.6 6.5 6.5 6.5 6.4 6.0 5.9 5.8 5.8 5.6 5.7 5.7 5.7 5.9 5.6 5.6 5.5 5.4 5.5 5.4 5.4 5.7 5.7 5.8 5.8 5.7 5.7
6.0 5.8 5.6 5.8 5.8 6.2 5.8 5.4 5.3 5.0 5.0 5.0 4.9 4.7 5.6 5.6 5.7 5.6 5.7 6.0 6.3 6.4 6.6 6.7 6.9 6.7 6.2 6.2 5.9 5.7 5.7 5.6 5.8 5.8 5.8 5.8 5.8 5.7 5.4 5.3 5.5 5.4 5.2 5.5 5.6 5.5 5.7 5.7 5.6
6.1 5.9 5.9 5.4 5.9 6.0 5.7 5.4 5.4 5.0 5.1 5.4 5.4 5.7 5.1 5.4 5.5 5.7 5.6 5.8 6.4 6.6 6.4 6.5 6.6 6.7 6.4 6.1 6.0 5.8 5.5 5.5 5.8 5.7 5.7 5.8 6.0 5.9 5.4 5.3 5.3 5.3 5.1 5.3 5.4 5.2 5.2 5.5 5.5
6.1 5.9 5.8 5.8 5.9 5.7 5.6 5.3 5.9 5.0 4.5 5.1 5.6 5.6 5.5 5.4 5.7 5.9 6.1 6.1 6.1 6.1 6.4 6.7 6.6 6.6 6.4 6.3 5.8 5.6 5.9 5.6 5.6 5.5 5.8 5.9 6.0 6.0 5.7 5.5 5.3 5.5 5.2 5.3 5.2 5.0 5.1 5.2 5.5
6.1 5.7 5.7 5.8 5.6 5.3 5.7 5.9 5.6 5.2 5.0 4.9 5.4 5.3 5.8 5.7 5.9 6.0 6.0 6.2 6.3 6.0 5.9 6.0 6.1 6.1 6.4 6.1 5.4 5.0 5.6 6.0 6.0 5.8 5.7 5.9 6.0 6.2 6.0 5.6 5.6 5.5 5.3 5.4 5.1 5.0 5.2 5.4 5.5
6.0 5.7 6.0 6.2 5.6 5.6 5.2 6.0 5.6 4.9 4.7 5.4 5.5 5.3 5.4 5.9 5.9 5.9 6.0 6.1 6.3 6.4 6.2 6.0 6.1 5.9 5.8 6.1 6.2 5.9 5.2 5.7 5.7 6.1 5.8 5.9 6.0 6.2 6.1 5.9 5.6 5.7 5.6 5.5 5.1 5.2 5.5 5.6 5.6
6.0 5.5 5.7 5.8 5.5 5.0 5.1 5.7 5.7 5.6 4.8 5.7 5.7 5.5 5.3 6.1 5.8 5.8 5.9 5.9 6.2 6.5 6.6 6.4 6.1 5.8 5.8 5.8 6.1 5.6 5.1 5.2 5.3 5.9 5.9 6.0 5.9 6.1 6.1 6.0 5.9 5.9 5.7 5.7 5.2 5.3 5.5 5.6 5.6
6.3 5.7 5.7 5.7 5.3 5.2 5.4 5.3 5.5 5.2 5.2 5.6 5.8 5.6 5.4 5.6 5.8 5.8 5.9 6.0 6.1 6.5 7.0 6.9 6.5 6.1 5.6 5.8 6.1 6.1 5.9 5.2 5.3 5.4 6.0 6.0 6.1 5.9 6.0 6.0 5.9 5.8 5.7 5.6 5.7 5.6 5.6 5.6 5.6
6.5 5.6 6.0 5.3 4.7 4.6 5.8 5.4 5.0 5.4 5.5 5.6 5.7 5.7 5.6 5.6 5.7 6.0 6.4 6.7 7.0 7.0 7.2 7.2 6.9 6.6 6.4 6.2 5.9 6.0 6.0 5.2 5.0 5.3 5.6 5.7 6.3 6.1 6.0 6.0 6.0 5.8 5.7 5.5 5.7 5.7 5.4 5.6 5.5
6.6 6.1 5.8 5.7 5.6 5.6 5.7 5.7 5.6 5.6 5.1 4.9 5.3 5.5 5.7 5.5 5.9 6.5 6.9 7.1 6.9 6.7 6.7 7.1 7.1 7.0 6.9 6.6 6.2 6.1 6.2 6.0 6.0 5.6 5.6 5.6 5.7 6.5 6.2 6.1 6.0 6.0 5.7 5.8 5.8 5.7 5.4 5.3 5.8
6.7 6.3 5.9 5.7 5.5 5.7 5.7 5.8 5.7 5.8 5.3 5.4 5.5 5.4 5.4 6.1 6.5 6.7 6.8 6.9 6.9 6.8 6.6 6.6 6.8 7.0 6.9 6.8 6.6 6.1 6.2 6.4 5.9 5.7 5.3 5.7 5.7 6.0 6.4 6.1 5.8 6.0 5.7 5.2 5.4 5.6 5.6 5.4 6.0
7.0 6.3 5.9 5.5 5.4 5.7 5.8 5.9 5.8 5.7 5.6 5.6 5.5 5.5 5.9 6.8 6.8 6.6 6.6 6.6 6.6 6.6 6.7 6.8 6.8 6.7 6.5 6.5 6.1 6.3 5.9 6.2 6.0 5.8 5.6 5.4 5.5 6.0 5.9 6.3 6.1 5.9 5.9 5.7 5.1 5.3 5.2 5.8 5.7
6.8 6.3 5.9 5.5 5.4 5.8 6.0 6.1 5.8 5.6 5.8 5.6 5.4 5.7 6.6 6.7 6.6 6.6 6.5 6.4 6.3 6.5 6.5 6.7 6.7 7.0 6.9 6.3 6.0 5.9 5.8 6.2 6.1 5.9 5.6 5.6 5.5 5.4 5.7 6.0 6.1 6.0 5.8 5.7 5.5 5.5 4.9 5.8 5.8
6.8 6.4 5.8 5.5 5.7 5.9 6.0 5.8 5.6 5.8 5.7 5.4 5.6 6.2 6.5 6.5 6.5 6.5 6.3 6.4 6.4 6.3 6.2 6.1 6.2 6.5 6.6 6.0 5.6 5.8 6.0 5.9 6.0 6.1 5.8 5.6 5.2 5.2 5.6 5.8 6.0 6.0 6.0 5.7 5.0 5.5 5.3 5.7 5.6
6.8 6.4 5.8 5.4 5.5 5.7 5.6 5.9 5.7 5.6 5.6 5.4 5.5 6.4 6.6 6.7 6.8 6.7 6.5 6.4 6.3 6.2 6.2 6.4 6.5 6.5 6.6 6.0 5.6 5.9 6.4 5.9 6.0 6.1 6.1 5.8 5.5 5.0 5.1 5.4 5.8 5.9 5.9 5.4 5.3 5.1 5.3 5.3 5.2
7.0 6.2 5.1 5.1 5.4 5.7 5.5 4.9 5.9 5.7 5.7 5.5 5.7 6.4 6.7 6.9 7.0 6.9 6.6 6.5 6.3 6.4 6.7 6.8 6.9 6.8 7.2 7.1 6.4 6.3 6.5 6.5 6.2 6.2 6.2 5.9 5.6 5.4 5.3 5.4 5.8 5.7 5.7 5.6 5.4 5.2 4.8 5.2 5.1
6.6 6.1 5.3 4.8 5.4 5.6 5.8 5.7 5.8 6.1 5.7 5.8 6.0 6.3 6.9 6.8 7.1 7.0 6.7 6.6 6.6 6.6 6.8 6.9 6.9 6.9 7.0 6.8 6.7 6.5 6.6 6.6 5.9 5.0 5.8 6.2 5.5 5.6 5.4 5.3 5.7 5.9 5.8 5.3 5.1 5.3 5.2 5.3 5.3
6.3 6.2 5.2 5.0 5.8 5.6 5.7 6.2 5.6 5.8 5.8 6.0 6.1 6.2 6.7 6.8 6.8 6.8 6.6 6.6 6.5 6.7 6.9 6.8 6.9 7.1 7.0 6.9 6.8 6.5 6.4 6.4 5.8 5.7 5.9 5.8 5.4 5.5 5.5 5.4 5.4 5.8 5.7 5.5 5.6 5.5 5.3 5.4 5.1
6.2 6.2 5.7 5.3 5.8 5.8 5.9 6.2 6.1 6.0 5.9 6.1 6.2 6.1 6.4 6.7 6.9 7.1 7.0 6.8 6.6 6.5 7.0 7.1 7.1 7.1 7.2 7.1 7.0 6.9 6.8 6.4 6.2 6.1 6.0 5.8 5.9 5.4 5.4 5.3 5.2 5.5 5.4 5.5 5.6 5.4 5.2 5.4 5.3
6.3 6.4 6.0 5.8 5.9 5.6 5.9 6.2 6.2 6.2 6.2 6.1 6.3 6.2 6.3 6.7 6.9 6.9 6.9 6.9 6.5 6.4 6.4 6.7 7.1 7.4 7.3 7.3 7.3 6.8 6.7 6.4 6.2 6.2 5.5 5.8 6.0 5.5 5.4 5.2 5.2 5.2 5.4 5.5 5.4 5.5 5.5 5.3 5.4
6.3 6.1 6.0 5.7 6.1 5.7 5.6 6.2 6.1 6.2 6.2 6.4 6.4 6.4 6.5 6.6 6.9 7.0 6.9 6.9 6.5 6.4 6.3 6.4 6.7 7.3 7.5 7.4 7.1 6.8 6.8 6.7 6.3 6.0 5.9 5.4 5.3 5.8 5.3 5.5 5.2 5.6 5.5 5.5 5.6 5.5 5.4 5.4 5.3
6.3 5.9 5.9 5.9 5.6 4.9 4.9 4.7 5.9 6.2 6.0 6.4 6.3 6.2 6.3 6.4 6.7 6.8 6.9 6.8 6.4 6.3 6.1 6.1 6.0 6.0 6.8 6.7 6.9 6.7 6.5 6.2 6.0 5.8 5.2 5.5 5.2 5.5 5.3 5.7 5.0 5.1 5.5 5.8 5.8 5.6 5.5 5.4 5.7
6.2 5.9 5.8 5.9 5.3 5.2 5.0 4.3 6.3 6.2 5.8 5.7 6.2 6.2 6.4 6.4 6.4 6.5 6.6 6.6 6.5 6.1 6.0 5.8 5.8 6.2 6.8 7.2 7.3 6.8 6.5 6.1 6.0 5.8 5.3 5.2 5.2 5.3 5.3 5.3 5.0 5.1 5.6 5.8 5.7 5.6 5.7 5.9 6.0
6.2 5.9 5.9 5.3 5.1 3.4 5.0 4.7 6.5 6.5 6.5 6.3 6.3 6.3 6.3 6.3 6.3 6.5 6.6 6.5 6.7 6.2 5.7 5.7 5.6 5.9 6.6 6.7 6.7 6.4 6.3 6.0 6.2 5.7 5.2 5.0 4.8 4.9 4.9 5.2 5.1 5.2 5.9 5.7 5.6 5.5 5.4 5.4 5.7
6.0 6.1 5.2 3.8 3.5 3.2 5.4 5.2 7.0 6.7 6.6 6.5 6.4 6.3 6.3 6.3 6.3 6.3 6.3 6.7 6.7 6.2 5.8 5.6 5.7 5.8 6.4 6.6 6.2 6.2 5.8 5.9 5.8 5.5 5.4 5.2 5.0 4.8 4.7 4.8 4.8 5.1 5.6 5.6 5.3 5.5 5.5 5.3 5.4
6.1 5.7 5.3 3.9 3.4 3.5 5.6 5.7 7.0 6.7 6.4 6.6 6.6 6.5 6.4 6.4 6.3 6.3 6.3 6.7 6.5 5.9 5.8 5.8 5.6 5.9 6.2 6.4 6.2 6.5 6.1 5.9 6.1 5.9 5.4 5.0 4.6 4.6 4.6 4.8 4.9 5.2 5.5 5.4 5.4 5.5 5.2 5.3 5.1
5.8 5.7 5.5 5.4 4.4 3.7 5.9 6.5 6.8 6.6 6.5 6.5 6.5 6.6 6.5 6.4 6.2 6.1 6.3 6.4 6.2 5.8 5.7 5.8 5.8 5.9 6.0 6.8 6.3 6.5 6.2 6.3 6.5 6.0 5.5 5.0 4.4 4.7 4.5 4.7 4.9 5.3 5.6 5.6 5.5 5.4 5.3 5.2 5.3
5.8 5.6 5.5 5.2 3.3 3.3 5.6 6.2 6.9 6.7 6.5 6.4 6.3 6.4 6.5 6.4 6.3 6.1 6.3 6.5 6.1 6.0 5.7 5.9 5.8 5.9 6.0 6.4 6.6 6.6 6.8 6.3 6.5 6.2 5.8 5.4 5.0 4.8 4.6 4.8 5.0 5.8 5.9 5.6 5.5 5.2 5.4 5.4 5.4
5.8 5.7 5.5 5.3 5.0 3.1 2.7 5.9 6.5 6.6 6.5 6.4 6.2 6.0 6.2 6.3 6.3 6.1 6.2 6.4 6.3 6.1 6.1 6.1 6.1 6.2 6.2 6.2 6.5 6.5 6.5 6.3 6.4 6.1 5.9 5.8 5.6 5.0 4.9 5.2 5.2 5.5 5.4 5.4 5.2 5.3 5.6 5.6 5.4
5.9 5.7 5.4 5.4 4.8 4.7 4.7 5.7 6.5 6.4 6.3 6.1 6.2 6.1 5.9 6.0 6.3 6.2 6.1 6.3 6.4 6.5 6.2 6.2 6.3 6.3 6.5 6.5 6.5 6.8 7.0 6.6 6.2 5.9 6.1 6.0 5.8 5.4 5.3 5.2 5.3 5.4 5.4 5.4 5.4 5.4 5.4 5.3 5.4
Wind_Speed
20 14 7 2 1 3 4 6 4 10 7 8 12 8 9 6 4 2 8 14 20 17 25 22 9 9 8 7 9 9 7 9 10 9 9 8 9 11 12 15 15 14 15 13 14 16 15 15 15
9 5 3 4 2 3 3 6 10 8 7 9 10 4 8 4 4 5 6 15 18 19 22 24 19 10 11 10 10 10 9 8 8 9 10 9 8 9 12 15 14 15 16 13 13 13 15 14 14
8 6 3 2 3 5 3 8 8 4 6 9 4 7 4 3 6 4 6 10 14 18 20 25 30 18 9 14 11 12 10 8 7 7 8 8 10 9 13 14 15 16 17 13 14 15 15 14 15
4 3 4 2 8 8 7 8 6 5 7 9 6 6 5 3 1 3 7 12 11 15 21 22 26 28 18 12 14 9 10 8 8 8 8 7 9 11 13 15 13 18 18 14 14 14 14 13 14
3 4 3 1 6 4 7 6 4 5 5 11 8 5 5 2 8 8 8 10 10 12 17 20 26 24 25 19 18 9 4 5 7 7 8 8 9 11 16 15 14 17 20 14 14 14 13 12 12
3 2 3 1 7 5 5 7 7 7 6 9 7 6 4 3 10 8 7 8 11 9 14 17 19 24 23 22 20 13 14 13 6 5 7 7 7 10 14 17 16 18 22 18 16 14 12 12 11
4 3 5 4 6 5 5 6 9 7 7 8 7 6 6 10 8 7 7 8 9 9 12 15 17 19 20 21 18 18 15 15 14 7 6 5 5 8 13 16 18 20 22 20 18 16 14 11 10
4 2 3 3 5 5 5 6 4 8 4 3 5 5 3 8 8 7 6 7 7 8 7 11 14 13 16 16 15 15 16 14 17 13 8 5 3 5 14 18 20 20 21 21 19 17 14 11 11
3 3 4 4 5 4 6 5 5 4 5 5 2 4 3 7 8 7 6 6 6 6 7 12 13 15 13 14 14 14 8 11 10 13 11 8 7 9 11 18 21 23 23 23 21 18 17 14 11
4 2 6 6 6 5 3 4 4 4 4 3 6 5 8 7 6 7 7 7 7 8 7 7 11 13 14 12 13 14 8 8 11 10 14 11 11 13 13 16 22 21 20 20 19 18 16 13 11
6 4 5 6 6 6 3 3 1 5 4 7 4 6 6 5 6 7 6 6 7 6 5 6 10 12 12 11 11 10 12 7 7 9 9 12 12 11 12 13 17 18 18 11 15 17 12 12 14
5 6 6 2 3 4 4 5 5 2 2 4 3 4 5 5 5 6 6 6 7 6 6 6 10 12 10 12 7 9 10 10 7 7 9 5 10 7 10 11 15 15 15 15 9 10 10 11 15
8 5 4 3 3 2 5 7 2 7 5 5 3 5 5 4 4 4 4 6 6 6 6 6 6 8 10 11 10 9 7 10 9 9 11 10 6 7 7 10 13 14 16 16 13 12 9 9 9
4 5 4 1 3 4 4 7 3 6 5 5 6 7 2 3 2 4 4 5 5 6 5 5 3 6 11 7 11 8 10 10 10 12 11 18 15 11 5 8 9 13 15 14 12 9 6 7 9
3 2 5 5 2 3 4 4 6 3 4 7 7 7 5 5 4 3 1 4 5 5 6 6 6 4 5 8 10 9 10 11 10 14 15 17 19 13 15 8 6 13 14 14 11 9 8 4 5
3 1 2 4 4 3 4 1 6 7 5 8 8 6 6 6 3 4 3 2 4 5 5 5 5 6 5 6 6 8 9 10 11 13 17 17 22 21 18 8 7 13 15 13 8 4 4 4 4
5 2 5 2 2 3 3 7 4 8 6 7 8 7 5 5 6 5 5 2 4 5 5 6 6 6 6 5 7 8 9 6 10 13 14 15 22 22 18 8 11 15 11 9 7 3 5 4 4
2 3 3 6 2 5 9 12 6 4 8 8 7 7 5 5 2 7 3 1 3 5 4 5 5 6 7 4 5 4 4 7 10 12 14 14 17 17 12 9 9 12 6 6 6 6 4 4 4
4 1 6 5 5 5 7 9 8 5 2 6 7 5 5 4 7 7 6 4 3 4 4 6 6 6 5 3 3 3 4 6 6 10 17 20 7 6 10 3 4 9 7 8 9 6 8 3 3
7 4 5 3 3 3 8 14 12 6 3 1 4 6 6 7 3 6 7 5 2 2 5 5 5 6 4 3 2 0 3 3 5 10 13 20 14 10 2 6 6 6 4 6 7 6 3 2 4
2 3 3 4 8 8 8 7 7 5 4 5 5 3 5 3 2 2 3 2 2 4 4 4 5 5 4 5 3 2 2 3 4 8 9 12 14 11 8 4 5 7 4 5 5 7 6 4 2
3 6 5 5 6 3 4 5 6 8 8 7 6 4 2 1 2 3 3 2 4 3 4 4 4 4 4 6 4 5 3 4 3 3 6 8 14 10 11 6 1 2 3 6 7 6 6 4 4
2 5 6 4 4 4 2 1 4 6 6 7 6 4 4 2 1 3 3 4 1 3 2 3 4 4 5 5 6 4 2 2 2 4 7 7 8 11 11 7 4 4 2 2 6 6 6 4 4
3 3 6 2 1 3 1 2 4 4 3 4 5 6 5 3 1 2 6 4 2 3 4 4 4 4 5 5 6 6 5 4 5 5 4 6 6 5 10 10 6 5 3 3 1 3 6 5 5
3 2 3 5 4 4 3 2 9 2 5 3 3 1 2 3 1 3 3 3 4 3 3 1 2 4 4 5 5 5 6 5 3 4 4 5 4 3 6 6 6 4 4 7 6 3 3 4 4
3 1 3 4 2 5 4 5 5 5 6 3 2 2 1 4 3 2 4 4 4 1 3 3 3 3 5 5 4 4 5 3 3 5 3 2 3 3 5 5 7 6 5 2 7 5 4 5 4
2 0 2 4 2 2 4 6 3 1 2 4 5 3 5 3 3 3 5 5 4 3 3 1 2 3 4 4 4 4 5 6 5 5 5 3 2 3 4 5 5 6 5 3 3 4 5 4 4
1 1 2 2 2 4 5 5 5 3 5 6 5 5 3 3 2 2 3 6 4 3 1 2 2 3 4 4 4 4 5 5 4 5 5 5 4 2 3 4 5 6 5 3 3 3 4 4 3
2 1 2 1 1 4 2 6 4 2 2 3 3 3 4 5 4 3 3 6 6 3 1 1 2 3 3 3 3 4 5 6 6 4 5 5 6 6 6 5 5 5 5 3 1 4 5 5 4
2 2 4 3 3 1 2 7 2 5 5 4 4 1 4 3 2 2 2 5 6 5 2 0 2 3 3 3 4 4 4 5 4 4 5 5 5 4 5 5 4 5 5 5 4 5 5 5 5
Wind_Direction
302 238 235 286 269 219 228 87 356 33 19 3 53 52 93 52 31 1 346 9 340 335 336 355 319 247 251 202 182 160 164 167 161 159 160 163 168 160 153 147 140 130 120 115 112 105 106 110 103
303 273 254 255 253 224 60 43 54 34 33 330 59 67 40 76 41 343 355 333 348 338 350 356 351 308 278 235 191 168 177 178 169 171 161 166 167 172 161 150 145 126 122 121 115 115 113 112 108
248 270 271 231 279 41 45 46 34 52 81 38 97 49 30 24 27 4 323 327 356 354 358 5 9 8 292 258 217 178 184 179 170 183 170 170 158 162 158 155 136 130 125 129 124 120 107 115 109
305 213 256 263 65 55 31 46 355 348 116 52 126 81 96 170 296 301 339 359 16 4 4 0 9 11 5 350 271 223 183 185 190 188 181 185 158 160 163 157 151 138 128 134 129 123 118 118 114
234 260 251 238 92 95 77 19 324 350 50 45 337 123 121 254 34 13 344 16 28 9 4 8 6 6 5 8 30 350 246 191 204 204 204 197 177 166 163 164 158 144 129 136 132 123 121 122 117
268 235 271 22 99 98 94 14 320 7 38 39 25 331 107 99 24 357 342 21 44 17 13 7 2 3 360 3 25 13 6 357 283 245 223 207 193 173 167 165 164 150 134 141 135 129 129 126 123
276 282 22 18 90 154 60 351 30 352 357 46 340 317 113 26 12 347 351 0 27 38 18 11 1 356 360 353 2 7 15 357 333 301 260 223 215 195 184 173 167 155 142 142 141 137 132 131 126
288 269 189 45 17 81 63 323 56 36 62 354 5 30 0 0 345 353 7 25 27 19 34 15 359 351 3 344 342 351 2 359 347 313 292 254 246 226 200 190 174 158 144 147 144 138 132 133 129
294 270 70 47 1 60 80 345 110 159 270 99 108 89 28 0 343 8 357 9 19 23 355 17 3 350 351 347 358 327 346 327 344 336 276 249 248 239 209 194 177 160 157 149 141 140 130 130 130
7 13 42 26 33 17 73 336 358 305 305 159 172 109 40 356 346 3 359 358 3 5 353 13 357 345 343 355 349 326 315 331 310 319 327 241 245 248 186 182 172 155 138 141 140 138 142 136 138
359 56 100 57 21 354 10 239 75 324 293 60 2 349 355 339 345 0 358 358 350 0 354 8 354 338 341 340 336 328 324 290 304 295 306 302 277 250 145 134 133 128 125 124 137 134 158 166 158
112 48 27 32 21 315 355 330 304 89 11 52 4 2 299 336 344 352 346 353 355 351 357 5 354 336 338 331 313 317 314 320 309 310 273 290 285 265 134 145 147 147 152 149 160 167 175 207 162
80 98 78 75 274 305 327 269 289 283 137 149 218 268 286 331 347 351 351 359 348 341 356 353 360 341 335 329 319 319 308 311 315 310 299 232 250 290 146 155 159 155 157 165 164 166 196 178 152
99 100 94 212 300 253 301 309 101 200 128 222 214 247 269 306 6 303 14 337 343 336 343 338 352 358 326 326 310 318 305 300 307 289 284 224 195 230 207 162 164 156 161 164 165 156 155 156 157
128 158 172 209 358 286 318 239 229 139 153 260 257 230 196 238 194 256 118 320 323 329 332 346 347 348 317 324 312 317 306 315 305 288 302 241 205 198 228 163 169 165 159 153 150 152 166 132 140
218 225 294 97 312 122 284 102 165 150 218 258 268 245 199 221 187 203 159 272 323 315 331 341 347 336 337 314 323 313 312 304 311 298 302 240 208 207 205 170 166 162 157 155 162 150 137 154 170
224 344 22 144 98 324 262 297 160 174 212 263 275 266 219 211 207 159 106 332 327 324 338 344 353 347 338 335 336 322 316 326 311 313 315 229 202 198 194 174 166 173 159 160 164 150 138 159 176
15 19 5 316 87 354 291 261 282 231 181 237 273 276 256 238 215 99 107 46 302 289 335 3 352 356 340 358 339 331 314 336 329 337 339 314 193 191 175 162 167 164 157 151 141 150 161 168 193
345 28 283 333 80 332 278 297 290 96 298 262 250 272 279 267 128 148 162 172 296 345 2 16 353 358 347 352 346 345 345 327 340 351 347 347 157 159 175 153 159 147 160 165 164 158 174 173 153
309 307 14 299 58 317 293 296 283 174 214 282 327 316 330 342 324 157 153 154 138 343 21 20 7 357 346 353 328 160 308 310 329 359 355 342 20 55 79 189 137 132 151 162 153 148 133 142 159
97 346 33 291 312 248 276 271 189 180 198 196 221 251 259 289 279 345 95 136 91 37 13 10 28 343 2 345 332 345 7 323 351 1 355 340 356 30 49 25 131 149 171 176 164 159 158 138 170
323 14 317 307 7 310 28 292 217 167 203 194 187 187 11 320 227 211 141 75 35 41 22 5 44 341 10 354 357 16 39 34 338 355 346 332 353 22 36 18 349 194 176 184 170 170 171 140 160
63 346 312 328 321 353 234 296 246 149 236 162 144 143 229 191 237 321 91 82 30 73 354 11 9 21 29 11 2 352 20 58 304 34 351 350 345 11 31 15 8 208 225 204 163 159 163 160 149
332 267 233 241 318 12 1 61 269 172 129 136 154 167 169 195 42 200 125 140 192 85 42 33 355 23 21 30 2 352 353 335 32 36 2 356 348 0 25 7 357 345 181 230 235 201 172 176 142
238 307 326 358 13 227 85 8 253 138 150 169 130 151 119 104 289 47 154 149 97 63 33 2 351 28 28 37 357 338 359 335 41 40 18 353 339 8 1 360 355 353 332 195 192 177 137 171 162
27 353 145 225 286 275 102 239 256 87 99 140 184 218 226 234 120 144 104 114 117 113 69 4 16 30 35 32 9 340 322 2 5 24 6 340 333 349 338 0 348 338 341 295 167 164 169 172 172
294 324 13 96 48 36 247 276 283 77 212 172 206 174 265 72 82 64 101 131 111 102 69 36 355 43 51 41 13 359 3 16 8 355 353 353 319 357 339 342 321 346 342 337 186 136 150 141 146
333 192 68 356 29 315 301 290 250 281 254 188 215 214 68 61 89 127 118 130 115 101 30 71 8 60 66 39 32 16 0 3 1 7 356 343 343 336 336 341 7 343 334 338 252 148 154 162 141
148 192 226 53 87 170 296 277 318 16 140 196 139 84 45 9 22 41 99 113 118 123 282 66 18 47 43 46 54 35 12 2 1 359 356 359 330 349 6 4 4 339 352 338 122 141 155 140 141
326 286 194 137 244 297 144 272 309 0 22 8 327 29 85 10 4 33 53 134 158 157 156 28 97 19 36 31 37 49 36 26 6 1 354 342 343 358 1 359 6 12 12 0 72 79 57 78 82